Location: Newark
(34.9500°N, 139.9667°E)
Time: 07:39:30
(UTC+00:00)

Vanguard 1 Rocket - Pass Details

Date: 11 December 2019
Orbit: 651 x 4226 km, 34.3° (Epoch: 28 January)

Event Time Altitude Azimuth Distance (km) Brightness Sun altitude
Rises 13:20:31 0° 264° (W) 7,255 12.2 -70.2°
Reaches altitude 10° 13:26:09 10° 264° (W) 5,693 11.5 -71.1°
Enters shadow 13:29:28 17° 264° (W) 4,721 11.0 -71.7°
Maximum altitude 13:41:12 87° 178° (S) 1,661 - -73.5°
Drops below altitude 10° 13:48:34 10° 90° (E) 2,971 - -74.6°
Sets 13:50:38 0° 90° (E) 3,685 - -74.9°
